Regional Weather Roundup
Issued by NWS

Home | Current Version | Previous Version | Graphics & Text | Print | Product List | Glossary On
Versions: 1 2 3 4 5 6 7 8 9 10 11 12 13 14 15 16 17 18 19 20 21 22 23 24 25 26 27 28 29 30 31 32 33 34 35 36 37 38 39 40 41 42 43 44 45 46 47 48 49 50
000
ASUS43 KFSD 202010
RWRSD

WEATHER ROUNDUP FOR SOUTH DAKOTA
NATIONAL WEATHER SERVICE SIOUX FALLS SD
300 PM CDT WED SEP 20 2017

NOTE: "FAIR" INDICATES FEW OR NO CLOUDS BELOW 12,000 FEET WITH NO
SIGNIFICANT WEATHER AND/OR OBSTRUCTIONS TO VISIBILITY.


SDZ001>005-009-010-012>017-202100-
NORTHWEST AND NORTH CENTRAL SOUTH DAKOTA

CITY           SKY/WX    TMP DP  RH WIND       PRES   REMARKS
BUFFALO          N/A     69  25  19 SW18G32   29.64
FAITH            N/A     69  27  20 SW16G25   29.74F
MOBRIDGE       SUNNY     72  42  34 S13       29.73F
$$

SDZ012>016-024>037-041>051-057-063-072>074-202100-
SOUTHWEST AND SOUTH CENTRAL SOUTH DAKOTA

CITY           SKY/WX    TMP DP  RH WIND       PRES   REMARKS
RAPID CTY ARPT SUNNY     70  27  19 W14G22    29.76F
PIERRE         SUNNY     73  30  20 W9        29.76F
CUSTER         SUNNY     59  21  23 SW13G33   29.83F
ELLSWORTH AFB  SUNNY     70  26  19 W18       29.75
PHILIP         SUNNY     75  22  13 SW18G30   29.77F
PINE RIDGE     SUNNY     74  24  15 SW14G31   29.82
SPEARFISH      FAIR      66  25  20 SW15G24   29.76F
WINNER         FAIR      75  32  20 SW16G24   29.83F
$$

SDZ004>011-016>023-039-040-202100-
NORTHEAST SOUTH DAKOTA

CITY           SKY/WX    TMP DP  RH WIND       PRES   REMARKS
ABERDEEN       SUNNY     71  39  31 S12G20    29.79F
WATERTOWN      SUNNY     68  43  40 S10G16    29.83S
BROOKINGS      SUNNY     68  39  34 VRB7      29.86S
SISSETON         N/A     71  42  35 W14G20    29.80
$$

SDZ017-020-022-023-036>040-048>070-202100-
SOUTHEAST SOUTH DAKOTA

CITY           SKY/WX    TMP DP  RH WIND       PRES   REMARKS
SIOUX FALLS    SUNNY     70  52  52 S7        29.88R
HURON          SUNNY     72  40  31 SW13      29.82F
CHAMBERLAIN    SUNNY     76  36  23 SW14      29.82F
MITCHELL       SUNNY     72  36  26 CALM      29.85S
YANKTON        SUNNY     71  47  42 CALM      29.87F
$$

ABBREVIATIONS USED IN REMARKS
   TC - TEMPERATURE IN CELSIUS
  WCI - WIND CHILL INDEX
   HX - HEAT INDEX
  VSB - VISIBILITY





USA.gov is the U.S. government's official web portal to all federal, state and local government web resources and services.